Location: Unspecified
(0.0000°N, 0.0000°E)
Time: 23:39:29
(UTC+00:00)

Vanguard 2 - Pass Details

Date: 10 October 2020
Orbit: 554 x 2937 km, 32.9° (Epoch: 28 October)

Event Time Altitude Azimuth Distance (km) Brightness Sun altitude
Rises 18:55:22 0° 218° (SW) 5,356 12.5 -17.0°
Reaches altitude 10° 18:58:55 10° 209° (SSW) 4,663 12.0 -17.9°
Maximum altitude 19:11:47 39° 145° (SE) 3,621 10.6 -21.1°
Enters shadow 19:20:02 27° 101° (ESE) 4,450 10.8 -23.1°
Drops below altitude 10° 19:27:39 10° 83° (E) 5,756 - -25.0°
Sets 19:32:34 0° 76° (ENE) 6,697 - -26.2°
